Find Nilesat 301

NORAD ID: 52817 Int'l Des: 2022-061 Owner: NILE Country: EG operational
HEOCIRCULARGSO

实时位置

正在加载3D地球...

关于 Nilesat 301

正在加载描述...

即将过境

Passes for default location (London). Set your location on the main map for personalized predictions.

高度历史

Loading altitude history...

两行轨道根数

1 52817U 22061A 26105.86872653 -.00000052 00000-0 00000-0 0 9991
2 52817 0.0542 13.9588 0005961 0.7019 135.1054 1.00271841 14118
Epoch: Apr 15, 2026 • Age: 8 hours

当前状态

高度 35790.1 km
速度 3.07 km/s
星下点 -0.02°S, 7.08°W
发射日期 Jun 8, 2022
运行时间 3.8 years
类型 other

技术详情

分类 Payload
质量 3938.00 kg
干质量 1500.00 kg
总质量 3938.00 kg
长度 2.90 m
直径 1.80 m
跨度 29.60 m
形状 Box + 2 Pan
制造商 THALES
平台类型 Spacebus 4000B2
阶段状态 In Orbit
所有者/国家 NILE/EG

Most Searched